RH
50 62 97 99 100 100 99 98 97 97 97 99 100 100 100 98 98 98 99 97 99 94 96 98 99 100 97 97 97 88 80 79 81 80 83 74 76 78 68 73 76 88 90
42 61 96 100 100 100 100 99 99 99 99 93 100 99 100 100 99 100 100 100 98 98 97 99 100 99 99 98 95 98 74 73 78 78 79 83 75 81 75 73 61 92 90
36 71 96 100 100 100 100 100 100 99 100 99 97 99 99 99 99 100 100 98 100 100 100 98 99 100 98 97 98 98 74 70 69 77 76 78 77 74 78 80 82 67 86
34 68 96 100 100 100 100 100 100 99 99 99 98 98 98 98 97 96 96 97 97 98 96 94 94 99 99 99 100 95 74 70 71 70 71 80 83 78 79 82 80 74 84
33 46 96 100 100 100 100 100 100 99 100 98 99 99 99 99 99 98 98 97 97 97 98 99 98 98 98 99 100 89 69 73 73 68 72 80 86 85 85 78 85 82 76
32 35 81 100 100 100 100 100 100 100 100 99 99 100 99 100 100 100 99 98 98 98 98 99 100 99 99 96 92 73 71 74 70 70 73 83 96 95 95 80 76 73 72
30 31 35 97 100 100 100 100 100 100 100 99 98 98 99 100 100 99 98 99 100 100 100 98 96 95 89 78 75 77 79 76 73 72 75 93 96 96 95 94 85 83 69
28 32 25 36 68 97 98 96 95 95 96 90 78 68 64 69 87 93 98 96 96 95 93 90 88 87 82 80 80 79 82 78 74 85 87 83 95 98 96 87 82 84 87
30 31 34 32 40 46 63 79 77 67 53 43 28 22 33 26 40 49 58 72 71 75 72 74 78 80 83 79 77 79 79 83 86 93 96 99 100 98 97 90 82 82 81
34 32 32 34 36 31 37 16 21 50 42 35 20 16 24 37 23 16 19 27 29 38 47 49 51 60 68 68 72 74 71 75 78 89 95 100 98 99 98 97 96 89 84
32 36 36 35 35 33 30 31 36 40 40 37 34 32 30 32 24 25 14 15 20 21 23 30 31 36 44 42 48 56 54 61 70 81 88 92 99 99 100 96 93 95 97
32 35 38 39 36 35 31 34 32 32 33 32 31 33 30 30 33 37 32 19 16 22 32 34 28 27 30 33 34 34 36 44 53 67 76 91 99 98 98 99 98 96 94
36 38 38 38 37 35 35 33 33 31 32 33 30 32 33 30 30 30 32 27 23 26 30 30 27 27 28 28 28 29 30 33 41 51 69 99 100 100 99 99 99 99 100
38 40 38 36 33 33 34 33 33 35 34 35 37 36 32 31 31 30 31 37 28 32 35 34 31 28 28 26 27 27 29 39 49 56 81 92 100 100 100 100 100 98 98
35 38 40 38 37 36 35 35 33 35 35 36 39 40 39 35 33 31 31 34 39 39 39 36 34 30 29 28 28 29 39 43 60 67 74 71 87 92 96 99 100 100 100
34 37 39 37 34 32 32 32 32 32 34 35 38 39 42 43 36 35 33 36 38 40 41 38 38 33 31 30 29 35 47 36 43 59 53 57 64 60 74 83 98 99 96
31 37 36 37 35 33 31 27 28 28 30 33 36 37 35 37 43 38 37 39 39 41 41 41 40 35 34 34 31 43 38 35 39 41 45 48 42 48 55 70 82 77 87
33 34 35 30 36 34 30 27 25 27 26 29 33 36 38 32 43 41 42 44 41 40 42 41 42 38 37 38 33 44 43 34 35 35 43 40 45 46 46 61 61 63 74
32 34 34 31 32 34 29 28 26 24 23 26 30 32 37 37 39 42 45 47 42 42 42 42 41 40 41 42 32 44 50 38 39 38 40 40 45 46 48 51 52 55 64
31 32 34 30 30 32 30 24 22 22 23 23 26 27 32 38 40 44 41 45 44 45 45 45 42 40 45 46 36 42 64 42 41 42 43 40 45 45 46 48 48 52 57
32 31 28 30 30 30 26 22 19 20 22 23 23 19 25 30 32 43 44 44 44 48 50 50 49 41 46 46 37 35 51 66 43 42 43 40 45 44 45 48 48 51 55
33 30 29 27 23 25 31 28 24 20 22 24 24 21 18 25 28 34 45 45 49 47 47 52 57 48 43 53 47 35 32 45 34 41 39 40 44 43 45 49 48 51 50
33 33 31 32 32 33 28 31 28 26 22 20 22 23 22 25 24 30 37 44 47 49 48 51 57 68 46 49 55 50 36 33 41 34 35 39 43 43 45 52 49 48 49
36 40 40 46 31 22 12 44 42 30 19 24 24 23 29 29 32 34 38 40 41 42 45 52 55 57 65 52 50 57 63 61 53 43 33 38 44 42 45 55 50 48 51
43 52 60 53 35 13 9 41 39 53 47 33 31 27 26 33 32 29 34 42 44 44 45 48 56 60 61 60 62 60 53 58 50 55 48 45 47 43 46 51 48 48 53
56 60 66 66 42 15 9 11 20 30 42 46 35 32 33 31 37 19 23 31 39 44 47 54 55 61 65 65 60 62 62 57 55 60 59 58 51 48 49 42 42 46 50
Wind_Speed
6 9 20 25 22 23 23 22 20 18 20 25 26 25 23 24 23 22 24 22 23 22 21 21 20 20 19 19 18 17 16 16 16 16 16 15 14 14 14 14 14 12 13
7 7 18 24 20 20 21 20 20 21 19 17 23 25 22 21 21 21 22 22 21 20 21 22 20 20 19 20 17 16 15 14 15 16 15 10 14 13 14 13 10 11 12
7 6 12 21 19 19 19 20 20 20 19 18 18 19 21 20 18 20 20 19 20 20 20 19 21 20 18 16 15 16 14 14 13 14 14 12 9 13 13 12 12 9 9
7 6 11 17 17 18 18 19 19 19 18 18 19 18 17 17 16 16 16 16 17 18 18 15 15 15 16 16 17 15 13 14 14 15 12 13 13 13 12 12 11 8 8
8 7 9 15 16 17 17 18 18 18 17 16 18 18 18 19 19 14 15 15 15 15 17 18 17 17 16 17 17 14 13 13 14 12 11 14 14 15 11 11 8 8 5
7 6 6 13 16 15 16 17 17 17 18 16 16 17 18 18 18 18 15 14 16 16 16 16 17 17 17 16 14 13 13 13 14 11 12 13 15 16 14 10 12 11 6
6 5 7 9 13 13 14 15 15 15 16 16 16 16 16 17 18 18 16 16 17 17 15 15 13 14 14 13 12 12 12 14 12 12 11 14 17 15 14 12 11 11 9
5 6 7 10 10 13 12 14 15 15 16 16 14 14 15 14 15 15 16 15 15 14 14 12 11 11 12 13 12 11 11 11 12 12 11 11 18 15 15 13 12 11 10
6 7 7 8 9 10 12 13 14 14 14 14 14 12 14 14 15 15 15 16 16 15 13 12 11 9 9 11 11 11 10 14 11 11 12 17 21 14 14 13 14 13 12
6 7 7 6 8 8 7 11 13 14 15 15 14 13 14 13 14 14 12 14 13 13 13 12 11 11 9 9 10 10 11 12 11 10 10 13 18 16 14 14 14 15 14
6 7 7 7 7 7 7 9 11 12 14 15 14 15 13 12 12 13 14 14 14 12 12 12 11 11 10 13 12 12 13 12 10 11 11 14 20 18 18 15 14 14 15
4 6 7 7 7 6 7 8 9 10 11 14 14 13 12 12 13 12 14 14 14 14 15 15 16 14 13 13 13 14 13 12 10 10 12 17 21 17 17 17 16 15 15
3 5 6 6 7 8 8 8 8 9 10 11 14 14 12 11 13 14 14 16 15 17 16 16 16 16 15 15 14 13 13 11 11 10 14 22 24 22 20 19 18 20 18
3 4 5 6 7 8 8 8 9 10 10 11 13 15 12 12 13 13 14 16 18 17 17 17 16 16 15 14 14 13 13 13 12 9 11 17 23 24 24 25 23 20 19
4 3 4 5 7 7 8 7 8 9 10 10 12 14 14 13 12 12 13 14 15 15 16 16 15 15 14 13 13 13 13 12 13 11 10 17 21 23 24 24 23 21 21
5 3 3 4 5 6 7 8 8 8 10 11 12 14 14 12 13 13 13 14 15 15 15 14 15 14 12 11 12 12 13 13 13 14 13 15 18 22 24 25 23 23 25
6 4 3 3 4 5 6 6 7 8 9 10 11 13 14 14 13 12 12 13 14 15 15 15 15 13 12 11 10 10 11 13 14 15 18 16 18 19 22 25 23 26 25
6 4 2 2 3 5 6 6 6 7 8 8 8 10 13 14 14 12 12 13 15 15 15 15 16 16 14 12 9 9 10 13 14 17 17 20 21 20 20 24 22 24 25
7 5 3 2 2 3 4 5 6 7 7 8 8 9 11 13 13 12 13 13 14 14 16 16 16 17 17 14 9 7 9 15 14 16 16 21 21 21 22 21 22 22 23
9 7 5 3 2 2 3 4 5 6 6 7 7 8 10 10 12 11 11 13 14 14 15 17 14 16 16 15 7 5 5 12 12 17 17 20 20 21 23 22 23 21 21
10 9 8 6 4 4 3 2 2 2 3 5 5 7 8 9 10 10 9 11 11 13 14 15 12 15 18 20 5 2 4 4 12 13 15 20 21 20 21 21 22 22 22
14 12 11 9 7 7 5 4 3 2 2 3 4 6 7 8 9 10 10 10 10 9 12 14 16 11 13 22 10 7 3 5 13 10 15 18 21 20 22 20 21 20 22
14 13 10 7 5 4 8 6 5 4 3 3 2 3 5 7 8 9 9 9 8 9 9 11 12 14 12 12 20 9 3 3 12 7 12 17 22 22 23 20 21 21 22
15 12 10 9 8 7 7 5 6 4 4 3 3 2 4 6 7 8 8 8 8 7 8 9 10 10 11 12 6 12 9 6 4 5 7 13 21 19 22 17 20 19 21
12 11 10 10 9 9 8 7 7 3 2 3 2 2 3 4 6 6 7 7 7 6 7 8 9 10 9 8 9 8 5 2 7 3 5 15 20 17 22 13 17 16 18
12 12 11 11 10 9 9 8 10 10 6 3 4 2 1 2 3 5 4 5 6 6 7 7 7 8 8 7 6 7 7 5 8 6 5 15 16 16 20 20 20 18 17
Wind_Direction
353 356 22 18 10 16 24 31 34 34 35 37 42 46 43 43 41 40 40 40 38 39 39 38 39 40 44 47 46 44 44 42 46 50 48 41 49 49 49 61 63 48 51
346 356 29 22 15 18 24 30 36 40 40 36 38 42 44 43 41 39 38 37 38 37 37 37 37 39 40 42 41 39 45 44 50 52 40 27 30 43 42 46 52 48 50
5 10 34 16 17 21 23 28 33 36 39 42 39 40 41 42 39 39 39 37 33 32 32 31 35 34 33 34 35 33 44 43 51 43 37 33 30 35 40 36 32 37 49
17 20 38 15 19 24 26 30 32 34 37 40 43 40 39 40 39 39 38 37 37 37 36 36 34 32 29 28 28 28 43 47 50 43 36 28 34 25 32 36 26 30 44
26 24 21 18 23 26 29 29 33 36 39 39 39 42 42 41 40 38 37 38 36 34 32 31 33 33 28 26 25 25 41 52 42 37 34 33 31 21 20 31 28 16 21
36 28 16 19 27 28 31 31 32 34 38 44 42 41 38 40 40 38 37 29 31 30 28 26 30 30 28 29 29 28 39 52 39 31 32 34 23 23 23 21 21 23 26
42 32 37 35 36 31 32 35 36 37 40 42 44 41 42 38 37 34 32 30 29 28 26 22 23 24 24 27 28 33 42 48 34 32 34 37 26 21 24 27 21 17 21
53 40 41 36 46 41 35 37 39 37 38 40 43 45 39 38 35 35 33 31 27 26 23 15 14 18 20 24 30 33 39 48 37 34 29 30 34 23 29 29 25 21 13
55 53 36 33 38 26 29 43 43 44 41 43 45 43 40 35 36 32 27 28 25 22 19 14 9 3 10 17 24 30 36 46 37 38 37 35 29 27 34 33 34 30 21
60 53 44 32 38 27 24 36 40 39 38 36 36 41 36 25 28 27 25 27 25 22 17 16 10 7 4 3 19 30 42 35 31 35 26 35 32 24 35 39 39 39 34
61 50 41 36 35 28 18 21 24 23 28 28 27 26 25 21 22 19 24 27 20 20 16 14 12 13 20 10 8 26 30 23 28 35 1 20 24 22 28 33 35 39 39
65 39 41 35 33 29 26 21 24 23 27 28 26 24 22 19 18 19 12 17 20 19 16 15 16 18 17 12 9 16 19 17 23 32 2 20 23 22 23 25 29 34 41
73 53 40 38 35 40 32 28 30 24 26 24 27 28 22 22 20 18 16 17 21 16 18 15 17 18 17 16 14 15 15 22 19 31 9 34 35 37 34 32 32 35 35
96 57 41 38 34 34 35 31 31 33 31 31 27 29 27 27 24 21 20 19 21 20 17 16 17 13 16 17 19 17 18 23 22 31 18 16 33 36 36 35 34 34 29
135 86 51 46 41 38 38 37 35 36 37 33 33 30 32 29 26 24 23 21 18 17 15 13 11 13 11 18 18 25 27 28 33 40 36 17 35 33 29 26 28 28 30
154 123 87 66 61 53 50 45 39 37 34 34 33 29 31 31 27 25 21 22 17 15 10 9 11 10 12 17 22 32 41 39 36 38 37 31 28 27 28 27 30 26 22
168 153 116 75 60 61 54 53 49 43 41 34 31 29 31 33 30 29 24 21 16 11 11 12 15 14 17 22 34 44 47 46 43 39 38 29 25 23 23 25 28 23 23
168 158 124 103 80 65 57 56 51 48 50 45 37 31 31 29 36 27 26 21 14 14 13 14 11 13 15 19 32 46 55 48 45 40 41 31 28 25 20 20 22 23 23
178 167 139 96 87 87 74 67 61 52 49 43 37 31 30 28 31 28 27 21 18 18 18 13 12 12 8 8 21 49 68 50 47 38 40 28 28 26 21 17 19 20 21
177 170 165 151 135 123 88 73 65 55 48 45 38 35 32 27 26 31 25 24 22 22 19 14 10 12 12 359 8 56 90 49 50 38 35 26 26 24 21 19 17 20 17
182 179 177 166 163 154 154 138 104 83 68 54 42 36 34 32 34 35 32 27 29 25 19 17 10 11 13 16 18 49 79 96 47 38 34 25 24 19 17 19 17 13 13
194 191 185 184 186 178 175 174 150 135 100 92 62 35 37 32 31 32 36 31 28 25 23 22 21 9 22 25 8 319 11 171 21 27 28 23 18 14 13 15 12 15 10
205 199 190 182 173 189 184 189 175 163 154 145 83 53 29 37 36 35 32 31 29 33 27 25 22 25 18 28 36 27 358 1 335 23 23 20 10 7 4 9 10 9 7
208 195 186 184 188 191 184 198 197 203 187 151 117 65 38 35 29 29 30 31 31 32 31 26 27 27 35 28 29 40 56 47 7 326 347 12 1 359 358 4 2 1 3
206 193 190 192 186 196 195 183 199 203 189 136 113 91 55 30 22 25 30 24 28 29 30 31 31 37 36 37 35 15 22 38 28 319 313 341 346 355 348 354 353 353 356
198 193 197 196 200 201 197 190 186 186 180 191 175 142 54 360 354 2 24 35 23 22 19 23 27 30 37 36 33 27 27 8 354 357 318 327 325 337 336 338 347 346 347